Location: Newark
(45.1381°N, 84.1621°W)
Time: 11:53:34
(UTC+00:00)

ISS - Pass Details

Date: 24 December 2019
Orbit: 415 x 421 km, 51.6° (Epoch: 21 January)

Event Time Altitude Azimuth Distance (km) Brightness Sun altitude
Exits shadow 10:39:34 16° 149° (SSE) 1,154 -1.1 -26.1°
Maximum altitude 10:40:12 17° 135° (SE) 1,122 -1.0 -26.0°
Drops below altitude 10° 10:42:28 10° 92° (E) 1,487 0.1 -25.6°
Sets 10:45:03 0° 71° (ENE) 2,355 1.0 -25.1°
